Tracking 20942 objects as of 14-Jul-2020
HD Live streaming from Space Station
objects crossing your sky now

COSMOS 1553

Track COSMOS 1553 now!
10-day predictions
COSMOS 1553 is classified as:


NORAD ID: 14973
Int'l Code: 1984-046A
Perigee: 964.1 km
Apogee: 1,011.0 km
Inclination: 82.9 °
Period: 104.7 minutes
Semi major axis: 7358 km
RCS: 2.1904 m2 (large)
Launch date: May 17, 1984
Source: Commonwealth of Independent States (former USSR) (CIS)
Launch site: PLESETSK MISSILE AND SPACE COMPLEX (PKMTR)
aabbcc
Your satellite tracking list
Your tracking list is empty




NASA's NSSDC Master Catalog

Two Line Element Set (TLE):
1 14973U 84046A   20196.34591935  .00000019  00000-0  44396-5 0  9994
2 14973  82.9347  57.8439 0031903 190.9279 343.5304 13.75348910814521
Source of the keplerian elements: AFSPC